Погода в Камышине

Хотите узнать прогноз погоды в Камышине? Тогда Вам сюда: Погода в Камышине

Поиск расширенной информации на нашем сайте:

Полезная информация:

Новости сайта



02.01.2020
Опубликован Долгосрочный прогноз погоды по городам России и ближнего зарубежья на январь 2020 года.
Карты: Прогноз на январь и февраль 2020 года, Сравнение прогнозируемой аномалии приземной температуры воздуха на январь 2020 года по разным моделям.




Погода в Камышине - сегодня

Время (UTC), дата Ветер
(°,м/с) 
Видим.   Явления Облачность Т
(°С)
Тd
(°С)
f(%) Тe
(°С)
Pmin
(гПа)
dP
(гПа)
Po
(мм)
O2
(г/м3)
Тmin Tmax R s Состояние
почвы
12 09.08.20 340 (С) 7-11{13}  20000 м    3/3 1000 м 
[Cu hum]
+26.3 +4.4 24 +26  1009.6  -0.3  747  274           
15 09.08.20 340 (С) 5-10{12}  20000 м    4/0 средняя 
[Cu hum|Ac cuf]
+25.2 +5 27 +25  1009.5  -0.2  747  275    +27.1       
18 09.08.20 340 (С) 2{10}  20000 м    ясно 
+20.7 +6.4 39 +21  1010.7  747  279           
21 09.08.20 310 (СЗ) 20000 м    ясно 
+17.6 +7.7 52 +18  1011.1  0.3  748  282           
00 10.08.20 310 (СЗ) 20000 м    ясно 
+16.2 +7.4 56 +17  1011.6  0.4  748  283           
03 10.08.20 310 (СЗ) 20000 м    ясно 
+16 +7.7 58 +16  1012.2  0.6  748  284  +15        сухая 
06 10.08.20 350 (С) 20000 м    ясно 
+23.6 +6.5 33 +24  1012.2  0.3  749  277           
09 10.08.20 350 (С) 5{10}  20000 м    5/5 1000 м 
[Cu med, cong]
+26.3 +5.1 26 +26  1011.3  -0.7  748  274           
12 10.08.20 340 (С) 20000 м    4/4 1000 м 
[Cu med, cong]
+26 +3.6 24 +26  1010.6  -0.7  747  274           
15 10.08.20 320 (СЗ) 5{10}  20000 м    3/3 1000 м 
[Cu hum]
+26 +3.9 24 +26  1010.6  747  274    +27.4       
18 10.08.20 320 (СЗ) 20000 м    ясно 
+20.8 +4.7 35 +21  1011.5  0.5  748  279           
21 10.08.20 010 (С) 20000 м    3/0 средняя 
[Ac trans]
+18.7 +6 43 +20  1012.3  0.7  748  281           
00 11.08.20 340 (С) 20000 м    ясно 
+16 +7.4 57 +17  1012.6  0.2  749  284           
03 11.08.20 350 (С) 20000 м    ясно 
+16 +7.9 59 +17  1012.9  0.3  749  284  +13.8        сухая 
06 11.08.20 060 (СВ) 20000 м    ясно 
+21.1 +8.1 43 +21  1013  0.3  749  279           
09 11.08.20 060 (СВ) 20000 м    1/1 1000 м 
[Cu hum]
+24.3 +6.6 32 +24  1011.8  -1.1  748  276           
12 11.08.20 080 (В) 20000 м    ясно 
+25.7 +5.6 28 +26  1011.3  -0.4  748  275           
15 11.08.20 050 (СВ) 20000 м    ясно 
+24.6 +6.9 32 +25  1011  -0.4  748  275    +26.2       
18 11.08.20 050 (СВ) 20000 м    ясно 
+21.1 +9.5 47 +22  1011.5  0.3  748  278           
21 11.08.20 070 (В) 20000 м    ясно 
+19 +8.4 50 +20  1011.5  -0.2  748  280           
00 12.08.20 090 (В) 20000 м    ясно 
+17.7 +7.3 50 +19  1011.3  -0.2  748  282           
03 12.08.20 070 (В) 10 км    3/0 верхняя 
[Ci sp]
+18 +9.5 58 +20  1011  -0.3  747  281  +16.9        сухая 
06 12.08.20 120 (ЮВ) 20000 м    3/0 верхняя 
[Ci fib]
+23.4 +4.5 29 +23  1010.5  -0.3  747  277           
09 12.08.20 070 (В) 20000 м    1/1 1000 м 
[Cu hum]
+26.8 +4.8 24 +27  1009.5  -0.8  747  273           
12 12.08.20 070 (В) 20000 м    3/3 1000 м 
[Cu med, cong]
+28.6 +4.8 22 +29  1007.8  -1.7  745  271           
Время (UTC), дата Ветер
(°,м/с) 
Видим.   Явления Облачность Т
(°С)
Тd
(°С)
f(%) Тe
(°С)
Pmin
(гПа)
dP
(гПа)
Po
(мм)
O2
(г/м3)
Тmin Tmax R s Состояние
почвы

Для получения пояснительной информации подведите курсор к названию столбца.

ПОГОДА в Камышине - архив

Всё, что Вы хотите узнать о погоде в Камышине - удобно и подробно!

Выберите нужную дату (начиная с 1 января 2019* года) и нажмите кнопку "Найти".
Будут отображены архивные сводки погоды по пункту Камышин, начиная с указанной даты.


Отображать данные в формате CSV (для использования в таблицах Excel)


Внимание! Наш архив погоды предназначен исключительно для личного некоммерческого использования в познавательных целях. Если Вам необходимы официальные справки о состоянии погоды (для производственных, юридических, коммерческих и т.п. целей), обращайтесь в органы Росгидромета.

*Примечание: данная дата относится к архиву по метеостанциям СССР (Россия, СНГ, Балтия).
Архив по метеостанциям Зарубежной Европы и Азии (кроме Китая) хранится 10 дней, по другим регионам земного шара (Китай, Африка, Америка, Австралия, Океания) - 1 день.

Камышин - район местоположения метеостанции


Название, широта, долгота, высота метеостанции:
Камышин 50.1°ш. 45.4°д. 119 м над ур. моря [Российская Федерация]

Дополнительная информация

В oтличие oт бoльшинства пoгoдных сайтoв мы публикуем пoдрoбную метеoинфoрмацию в детальнoм прoфессиoнальнoм фoрмате.

Характеристики температуры и влажнoсти вoздуха измеряются на высoте 2 м в тени вдали oт зданий и деревьев.
Скoрoсть ветра измеряется на высoте 10 м (на урoвне рoста челoвека скoрoсть ветра ниже в 1.5-2 раза). Если метеoстанция нахoдится в гoрoде или в лесу, тo скoрoсть ветра занижена на 2-4 м/с пo сравнению с oткрытым местoм. Скoрoсть ветра над акватoриями крупных рек и oзёр, а также на вершинах хoлмoв на 2-5 м/с выше, чем в oбычных услoвиях.
Атмoсфернoе давление в разных тoчках местнoсти мoжет значительнo oтличаться oт давления на метеoстанции, в зависимoсти oт услoвий рельефа (при пoдъёме на 10 м давление пoнижается примернo на 1 мм рт.ст.).